• In Czech Republic
  • List of Countries
  • For 7 days
  • Water Temperature
  • Satellite Maps
  • Weather Map
  • Weather Widgets
  • user-avatar
    Login

    Hourly Weather Arvada

    Today, 19 July, Thursday

    Time Temperature Precipitation Wind Pressure Humidity
    00:00 +24°C° 0 mm 3 mps 629 mmHg 42%
    01:00 +22°C° 0 mm 3 mps 628 mmHg 43%
    02:00 +21°C° 0 mm 2 mps 628 mmHg 45%
    03:00 +20°C° 0 mm 2 mps 628 mmHg 47%
    04:00 +20°C° 0 mm 2 mps 628 mmHg 48%
    05:00 +19°C° 0 mm 2 mps 628 mmHg 50%
    06:00 +23°C° 0 mm 2 mps 628 mmHg 43%
    07:00 +26°C° 0 mm 2 mps 629 mmHg 36%
    08:00 +29°C° 0 mm 2 mps 630 mmHg 29%
    09:00 +31°C° 0 mm 2 mps 631 mmHg 24%
    10:00 +34°C° 0 mm 2 mps 631 mmHg 19%
    11:00 +36°C° 0 mm 2 mps 631 mmHg 14%
    12:00 +37°C° 0 mm 2 mps 631 mmHg 13%
    13:00 +37°C° 0 mm 2 mps 631 mmHg 13%
    14:00 +38°C° 0 mm 2 mps 631 mmHg 12%
    15:00 +37°C° 0 mm 2 mps 630 mmHg 14%
    16:00 +37°C° 0 mm 3 mps 630 mmHg 15%
    17:00 +36°C° 0 mm 3 mps 630 mmHg 16%
    18:00 +34°C° 0 mm 3 mps 629 mmHg 21%
    19:00 +30°C° 0 mm 3 mps 628 mmHg 26%
    20:00 +28°C° 0 mm 2 mps 628 mmHg 30%
    21:00 +27°C° 0 mm 2 mps 628 mmHg 31%
    22:00 +26°C° 0 mm 3 mps 628 mmHg 32%
    23:00 +25°C° 0 mm 3 mps 628 mmHg 33%

    Tomorrow, 20 July, Friday

    Time Temperature Precipitation Wind Pressure Humidity
    00:00 +24°C° 0 mm 3 mps 627 mmHg 33%
    01:00 +24°C° 0 mm 2 mps 627 mmHg 34%
    02:00 +23°C° 0 mm 2 mps 627 mmHg 34%
    03:00 +21°C° 0 mm 2 mps 627 mmHg 34%
    04:00 +21°C° 0 mm 2 mps 627 mmHg 35%
    05:00 +21°C° 0 mm 2 mps 627 mmHg 36%
    06:00 +24°C° 0 mm 2 mps 628 mmHg 32%
    07:00 +27°C° 0 mm 2 mps 629 mmHg 29%
    08:00 +30°C° 0 mm 1 mps 630 mmHg 25%
    09:00 +31°C° 0 mm 2 mps 630 mmHg 23%
    10:00 +34°C° 0 mm 2 mps 631 mmHg 20%
    11:00 +36°C° 0 mm 3 mps 631 mmHg 18%
    12:00 +36°C° 0 mm 3 mps 631 mmHg 18%
    13:00 +37°C° 0 mm 4 mps 631 mmHg 17%
    14:00 +37°C° 0 mm 4 mps 631 mmHg 16%
    15:00 +35°C° 0.4 mm 4 mps 630 mmHg 23%
    16:00 +33°C° 0.4 mm 5 mps 630 mmHg 30%
    17:00 +30°C° 0.4 mm 5 mps 629 mmHg 37%
    18:00 +29°C° 0.1 mm 5 mps 629 mmHg 41%
    19:00 +27°C° 0.1 mm 5 mps 629 mmHg 45%
    20:00 +26°C° 0.1 mm 5 mps 630 mmHg 48%
    21:00 +25°C° 0 mm 4 mps 629 mmHg 49%
    22:00 +24°C° 0 mm 3 mps 629 mmHg 49%
    23:00 +24°C° 0 mm 3 mps 629 mmHg 50%

    Day after tomorrow, 21 July, Saturday

    Time Temperature Precipitation Wind Pressure Humidity
    00:00 +22°C° 0 mm 3 mps 629 mmHg 50%
    01:00 +22°C° 0 mm 3 mps 629 mmHg 50%
    02:00 +22°C° 0 mm 3 mps 629 mmHg 50%
    03:00 +22°C° 0 mm 3 mps 629 mmHg 50%
    04:00 +22°C° 0 mm 3 mps 629 mmHg 49%
    05:00 +22°C° 0 mm 3 mps 629 mmHg 49%
    06:00 +25°C° 0 mm 2 mps 630 mmHg 44%
    07:00 +28°C° 0 mm 2 mps 631 mmHg 38%
    08:00 +30°C° 0 mm 1 mps 631 mmHg 32%
    09:00 +32°C° 0 mm 2 mps 631 mmHg 29%
    10:00 +34°C° 0 mm 2 mps 632 mmHg 26%
    11:00 +36°C° 0 mm 3 mps 632 mmHg 24%
    12:00 +36°C° 0 mm 3 mps 632 mmHg 23%
    13:00 +37°C° 0 mm 3 mps 631 mmHg 23%
    14:00 +37°C° 0 mm 3 mps 631 mmHg 22%
    15:00 +36°C° 0.6 mm 4 mps 631 mmHg 29%
    16:00 +34°C° 0.6 mm 4 mps 630 mmHg 36%
    17:00 +32°C° 0.6 mm 5 mps 630 mmHg 44%
    18:00 +29°C° 1.7 mm 5 mps 629 mmHg 51%
    19:00 +26°C° 1.7 mm 4 mps 629 mmHg 59%
    20:00 +23°C° 1.7 mm 4 mps 629 mmHg 67%
    21:00 +24°C° 0.2 mm 3 mps 629 mmHg 67%
    22:00 +24°C° 0.2 mm 3 mps 630 mmHg 67%
    23:00 +24°C° 0.2 mm 3 mps 630 mmHg 68%

    22 July, Sunday

    Time Temperature Precipitation Wind Pressure Humidity
    00:00 +22°C° 0.2 mm 3 mps 629 mmHg 69%
    01:00 +22°C° 0.2 mm 3 mps 629 mmHg 71%
    02:00 +23°C° 0.2 mm 2 mps 629 mmHg 73%
    03:00 +21°C° 0.1 mm 2 mps 629 mmHg 73%
    04:00 +21°C° 0.1 mm 2 mps 629 mmHg 73%
    05:00 +21°C° 0.1 mm 2 mps 629 mmHg 73%
    06:00 +24°C° 0 mm 2 mps 629 mmHg 63%
    07:00 +27°C° 0 mm 2 mps 630 mmHg 54%
    08:00 +29°C° 0 mm 1 mps 631 mmHg 45%
    09:00 +31°C° 0 mm 2 mps 631 mmHg 39%
    10:00 +32°C° 0 mm 2 mps 631 mmHg 34%
    11:00 +35°C° 0 mm 2 mps 632 mmHg 29%
    12:00 +34°C° 1 mm 3 mps 631 mmHg 35%
    13:00 +32°C° 1 mm 4 mps 630 mmHg 41%
    14:00 +30°C° 1 mm 4 mps 630 mmHg 48%
    15:00 +29°C° 2.1 mm 3 mps 630 mmHg 53%
    16:00 +27°C° 2.1 mm 3 mps 630 mmHg 58%
    17:00 +26°C° 2.1 mm 2 mps 630 mmHg 64%
    18:00 +25°C° 0.3 mm 1 mps 630 mmHg 67%
    19:00 +24°C° 0.3 mm 1 mps 630 mmHg 69%
    20:00 +23°C° 0.3 mm 1 mps 630 mmHg 72%
    21:00 +23°C° 0.1 mm 1 mps 630 mmHg 72%
    22:00 +21°C° 0.1 mm 2 mps 630 mmHg 72%
    23:00 +21°C° 0.1 mm 2 mps 630 mmHg 72%

    23 July, Monday

    Time Temperature Precipitation Wind Pressure Humidity
    00:00 +21°C° 0.2 mm 2 mps 630 mmHg 73%
    01:00 +20°C° 0.2 mm 3 mps 630 mmHg 74%
    02:00 +20°C° 0.2 mm 3 mps 630 mmHg 75%
    03:00 +19°C° 0.2 mm 3 mps 630 mmHg 78%
    04:00 +19°C° 0.2 mm 3 mps 631 mmHg 81%
    05:00 +19°C° 0.2 mm 3 mps 631 mmHg 84%
    06:00 +19°C° 0.1 mm 3 mps 631 mmHg 81%
    07:00 +19°C° 0.1 mm 3 mps 632 mmHg 78%
    08:00 +20°C° 0.1 mm 3 mps 632 mmHg 75%
    09:00 +20°C° 0.1 mm 3 mps 632 mmHg 73%
    10:00 +21°C° 0.1 mm 3 mps 632 mmHg 72%
    11:00 +21°C° 0.1 mm 2 mps 632 mmHg 70%
    12:00 +24°C° 0 mm 2 mps 632 mmHg 63%
    13:00 +26°C° 0 mm 3 mps 633 mmHg 56%
    14:00 +28°C° 0 mm 3 mps 633 mmHg 49%
    15:00 +28°C° 0.2 mm 3 mps 633 mmHg 51%
    16:00 +28°C° 0.2 mm 3 mps 633 mmHg 52%
    17:00 +27°C° 0.2 mm 3 mps 633 mmHg 53%
    18:00 +26°C° 0.9 mm 3 mps 632 mmHg 60%
    19:00 +25°C° 0.9 mm 2 mps 632 mmHg 66%
    20:00 +23°C° 0.9 mm 2 mps 632 mmHg 73%
    21:00 +23°C° 0.4 mm 2 mps 632 mmHg 75%
    22:00 +21°C° 0.4 mm 2 mps 632 mmHg 78%
    23:00 +21°C° 0.4 mm 2 mps 632 mmHg 81%

    24 July, Tuesday

    Time Temperature Precipitation Wind Pressure Humidity
    00:00 +20°C° 0 mm 2 mps 632 mmHg 81%
    01:00 +19°C° 0 mm 2 mps 631 mmHg 82%
    02:00 +19°C° 0 mm 2 mps 631 mmHg 83%
    03:00 +19°C° 0 mm 2 mps 631 mmHg 82%
    04:00 +18°C° 0 mm 2 mps 631 mmHg 81%
    05:00 +18°C° 0 mm 2 mps 631 mmHg 80%
    06:00 +21°C° 0 mm 2 mps 632 mmHg 69%
    07:00 +24°C° 0 mm 2 mps 632 mmHg 59%
    08:00 +27°C° 0 mm 1 mps 633 mmHg 49%
    09:00 +29°C° 0 mm 2 mps 633 mmHg 43%
    10:00 +30°C° 0 mm 2 mps 633 mmHg 37%
    11:00 +32°C° 0 mm 2 mps 634 mmHg 31%
    12:00 +34°C° 0 mm 2 mps 634 mmHg 30%
    13:00 +34°C° 0 mm 3 mps 633 mmHg 29%
    14:00 +35°C° 0 mm 3 mps 633 mmHg 27%
    15:00 +34°C° 0 mm 3 mps 633 mmHg 30%
    16:00 +33°C° 0 mm 3 mps 633 mmHg 33%
    17:00 +33°C° 0 mm 3 mps 632 mmHg 37%
    18:00 +30°C° 0.7 mm 3 mps 632 mmHg 44%
    19:00 +27°C° 0.7 mm 2 mps 632 mmHg 52%
    20:00 +25°C° 0.7 mm 2 mps 632 mmHg 60%
    21:00 +24°C° 0.4 mm 2 mps 632 mmHg 63%
    22:00 +24°C° 0.4 mm 3 mps 632 mmHg 65%
    23:00 +22°C° 0.4 mm 3 mps 632 mmHg 68%
    Show more